Regional Weather Roundup
Issued by NWS

Home | Current Version | Previous Version | Text Only | Print | Product List | Glossary Off
Versions: 1 2 3 4 5 6 7 8 9 10 11 12 13 14 15 16 17 18 19 20 21 22 23 24 25 26 27 28 29 30 31 32 33 34 35 36 37 38 39 40 41 42 43 44 45 46 47 48 49 50

000
ASUS43 KLSX 161807
RWRMO

WEATHER SUMMARY FOR MISSOURI
NATIONAL WEATHER SERVICE SPRINGFIELD MO
100 PM CDT WED APR 16 2014

NOTE: "FAIR" INDICATES FEW OR NO CLOUDS BELOW 12,000 FEET WITH NO
       SIGNIFICANT WEATHER AND/OR OBSTRUCTIONS TO VISIBILITY.
       CURRENT SKY AND/OR WEATHER CONDITIONS ARE NOT AVAILABLE FOR
       CHILLICOTHE AND FARMINGTON.

MOZ001>031-035>038-043-044-053-054-161900-
...NORTHERN AND WESTERN MISSOURI...

CITY           SKY/WX    TMP DP  RH WIND       PRES   REMARKS
KANSAS CTY INT PTSUNNY   60  29  30 S32G44    29.87F
6HR MIN TEMP:  44; 6HR MAX TEMP:  62;

KANSAS C DTWN  FAIR      64  30  27 S24G38    29.91F
6HR MIN TEMP:  46; 6HR MAX TEMP:  64; 6HR PCP: TRACE;

LEE`S SUMMIT   FAIR      60  31  33 S17G37    29.93F
6HR MIN TEMP:  43; 6HR MAX TEMP:  60;

ST JOSEPH      FAIR      62  30  29 S31G40    29.84F
6HR MIN TEMP:  45; 6HR MAX TEMP:  63;

CHILLICOTHE      N/A     60  32  34 S18G36    29.93F
6HR MIN TEMP:  42; 6HR MAX TEMP:  61;

KIRKSVILLE     FAIR      61  29  29 S30G39    30.00F
6HR MIN TEMP:  36; 6HR MAX TEMP:  61;


$$
MOZ066>068-077>081-088>096-101>105-161900-
...SOUTHWEST MISSOURI...

CITY           SKY/WX    TMP DP  RH WIND       PRES   REMARKS
SPRINGFIELD    FAIR      58  32  37 S24G33    30.05F
6HR MIN TEMP:  39; 6HR MAX TEMP:  58;

JOPLIN         FAIR      61  27  27 S29G36    30.01F
6HR MIN TEMP:  43; 6HR MAX TEMP:  62;


$$
MOZ032>034-039>042-045>050-055>058-069>072-161900-
...CENTRAL MISSOURI...

CITY           SKY/WX    TMP DP  RH WIND       PRES   REMARKS
COLUMBIA       FAIR      58  29  33 SE25G33   30.07F
6HR MIN TEMP:  37; 6HR MAX TEMP:  59;

JEFFERSON CITY FAIR      57  27  31 S22G30    30.09F
6HR MIN TEMP:  38; 6HR MAX TEMP:  57;

ROLLA          FAIR      56  29  35 SE20G30   30.10F
6HR MIN TEMP:  37; 6HR MAX TEMP:  56;

SEDALIA        FAIR      61  31  32 S24G33    30.02F
6HR MIN TEMP:  43; 6HR MAX TEMP:  61;

WHITEMAN AFB   FAIR      60  33  36 S18G30    29.99F
OSAGE BEACH    FAIR      57  28  33 SE21G28   30.10F

$$
MOZ051-052-059>065-161900-
...EAST CENTRAL MISSOURI...

CITY           SKY/WX    TMP DP  RH WIND       PRES   REMARKS
ST LOUIS INTL  PTSUNNY   54  25  32 SE21G26   30.21F
6HR MIN TEMP:  39; 6HR MAX TEMP:  54;

SPIRIT OF STL  PTSUNNY   54  25  32 S14G25    30.17F
6HR MIN TEMP:  38; 6HR MAX TEMP:  55;

ST CHARLES     FAIR      53  30  41 S21G31    30.19F
6HR MIN TEMP:  37; 6HR MAX TEMP:  53; 6HR PCP: TRACE;


$$
MOZ072>076-082>087-097>100-106>115-161900-
...SOUTH CENTRAL AND SOUTHEAST MISSOURI...

CITY           SKY/WX    TMP DP  RH WIND       PRES   REMARKS
CAPE GIRARDEAU FAIR      52  30  43 S9        30.26F
6HR MIN TEMP:  34; 6HR MAX TEMP:  52;

FARMINGTON     FAIR      52  25  35 S16G25    30.23F
6HR MIN TEMP:  34; 6HR MAX TEMP:  54;

POPLAR BLUFF   FAIR      51  28  41 SE10      30.25F
6HR MIN TEMP:  36; 6HR MAX TEMP:  51;

WEST PLAINS    FAIR      51  25  36 SE16G23   30.17F
6HR MIN TEMP:  35; 6HR MAX TEMP:  51;


$$



USA.gov is the U.S. government's official web portal to all federal, state and local government web resources and services.